[[{"header":{"parameterUnit":"m.s-1","parameterCategory":1,"la1":30.2992,"la2":30.254,"lo1":-89.0895,"lo2":-89.0443,"dy":0.0025,"dx":0.0025,"nx":19,"ny":19,"refTime":"2026-04-08T21:00:00:Z","depth":0,"parameterNumber":2,"parameterNumberName":"U-component_of_WINDS"},"data":[0,0,0,-5.1307,-5.1307,-5.1296,-5.1295,-5.1333,-5.1334,0,0,0,0,0,0,0,0,0,0,0,-5.1339,-5.134,-5.1307,-5.1307,-5.1296,-5.1295,-5.1333,-5.1334,0,0,0,0,0,0,0,0,0,0,0,-5.1339,-5.134,-5.1342,-5.1307,-5.1296,-5.1295,-5.1333,-5.1323,0,0,0,0,0,0,0,0,0,0,-5.1326,-5.1383,-5.134,-5.1342,-5.1307,-5.1296,-5.1295,-5.1322,-5.1324,-5.136,0,-5.1397,0,-5.1367,-5.1339,-5.134,0,0,0,-5.1286,-5.1382,-5.1352,-5.1342,-5.1307,-5.1296,-5.1295,-5.1322,-5.1325,-5.1363,-5.1397,-5.1397,-5.1367,-5.134,-5.134,-5.1615,-5.1617,0,0,-5.1286,-5.1353,-5.1351,-5.1355,-5.1358,-5.1295,-5.1295,-5.1323,-5.1366,-5.1397,-5.1398,-5.1368,-5.1341,-5.1341,-5.1612,-5.1615,0,0,0,-5.1303,-5.1355,-5.1323,-5.1355,-5.1349,-5.1295,-5.1295,-5.1365,-5.1349,-5.1398,-5.1368,-5.1341,-5.1342,-5.161,-5.1614,-5.179,0,0,0,-5.1302,-5.1364,-5.1324,-5.1365,-5.135,-5.1356,-5.1337,-5.1347,-5.1348,-5.1368,-5.1341,-5.1343,-5.1607,-5.1612,-5.178,-5.1863,0,0,0,-5.133,-5.1366,-5.1375,-5.1369,-5.1366,-5.1354,-5.1339,-5.1345,-5.1331,-5.134,-5.1343,-5.1605,-5.1611,-5.177,-5.1847,-5.1954,0,0,0,-5.138,-5.1532,-5.1379,-5.1538,-5.1367,-5.1463,-5.1338,-5.1407,-5.1435,-5.1342,-5.1608,-5.1613,-5.1767,-5.1837,-5.1945,-5.2057,-5.2109,0,0,-5.1609,-5.1562,-5.1651,-5.1513,-5.1654,-5.146,-5.1627,-5.159,-5.1531,-5.1591,-5.1597,-5.1783,-5.1846,-5.1952,-5.2382,-5.2424,0,0,0,-5.1746,-5.1811,-5.1834,-5.1863,-5.1839,-5.1825,-5.1756,-5.1743,-5.179,-5.1575,-5.1849,-5.1884,-5.1944,-5.1994,-5.203,-5.2078,-5.1639,-5.1639,-5.1638,-5.2167,-5.2082,-5.2224,-5.2139,-5.2171,-5.2098,-5.2116,-5.2087,-5.1993,-5.206,-5.2077,-5.2347,-5.2409,-5.2435,-5.2486,-5.2129,-5.213,-5.213,-5.2131,-5.2496,-5.2574,-5.2447,-5.2538,-5.245,-5.2527,-5.2466,-5.2397,-5.2457,-5.2327,-5.2375,-5.224,-5.2484,-5.2524,-5.2143,-5.2141,-5.2139,-5.2138,-5.2137,-5.2761,-5.2784,-5.2765,-5.2801,-5.2839,-5.2748,-5.2813,-5.273,-5.2653,-5.2701,-5.271,-5.2707,-5.2694,-5.2711,-5.2712,-5.2713,-5.2714,-5.2715,-5.2715,-5.3043,-5.3016,-5.3079,-5.3068,-5.3078,-5.308,-5.3012,-5.302,-5.3007,-5.2942,-5.2942,-5.2843,-5.2523,-5.2445,-5.2729,-5.2727,-5.2725,-5.2724,-5.2723,-5.3407,-5.3312,-5.3409,-5.3419,-5.34,-5.3445,-5.3339,-5.3363,-5.3357,-5.3393,-5.3284,-5.3061,-5.3007,-5.2978,-5.2913,-5.3301,-5.3301,-5.3301,-5.3301,-5.363,-5.3595,-5.3677,-5.3698,-5.371,-5.3625,-5.3742,-5.3692,-5.3626,-5.3619,-5.3551,-5.3457,-5.3431,-5.3392,-5.3354,-5.3292,-5.3768,-5.3768,-5.3769,-5.385,-5.3812,-5.3925,-5.3858,-5.3838,-5.3825,-5.3932,-5.3964,-5.387,-5.3786,-5.3611,-5.3591,-5.3439,-5.3394,-5.3304,-5.3247,-5.313,0,0]},{"header":{"parameterUnit":"m.s-1","parameterCategory":1,"la1":30.2992,"la2":30.254,"lo1":-89.0895,"lo2":-89.0443,"dy":0.0025,"dx":0.0025,"nx":19,"ny":19,"refTime":"2026-04-08T21:00:00:Z","depth":0,"parameterNumber":3,"parameterNumberName":"V-component_of_WINDS"},"data":[0,0,0,1.4458,1.4457,1.4423,1.4423,1.4365,1.4364,0,0,0,0,0,0,0,0,0,0,0,1.4462,1.4462,1.4458,1.4457,1.4423,1.4423,1.4365,1.4364,0,0,0,0,0,0,0,0,0,0,0,1.4463,1.4462,1.4461,1.4457,1.4423,1.4423,1.4365,1.4395,0,0,0,0,0,0,0,0,0,0,1.4431,1.4429,1.4462,1.4461,1.4457,1.4423,1.4423,1.4397,1.4393,1.4375,0,1.436,0,1.4361,1.4359,1.4359,0,0,0,1.4461,1.4432,1.4429,1.4461,1.4457,1.4423,1.4439,1.4395,1.4391,1.437,1.4359,1.4357,1.436,1.4359,1.4359,1.4249,1.4248,0,0,1.4463,1.4452,1.4432,1.4426,1.4434,1.444,1.4438,1.4393,1.4378,1.4359,1.4356,1.4359,1.4359,1.4358,1.425,1.4249,0,0,0,1.4466,1.4453,1.4451,1.4428,1.4423,1.4439,1.4437,1.438,1.4381,1.4355,1.4359,1.4358,1.4357,1.425,1.4249,1.4205,0,0,0,1.4467,1.4455,1.4452,1.4445,1.4424,1.4402,1.4425,1.4384,1.4379,1.4359,1.4358,1.4357,1.4251,1.425,1.4208,1.4184,0,0,0,1.4467,1.4455,1.4449,1.4444,1.443,1.4403,1.4401,1.4383,1.4381,1.4359,1.4357,1.4252,1.425,1.421,1.4188,1.4151,0,0,0,1.4462,1.4408,1.4448,1.4389,1.443,1.4378,1.4401,1.4362,1.4339,1.4358,1.4251,1.4249,1.4211,1.4191,1.4154,1.4116,1.41,0,0,1.4388,1.4399,1.4365,1.44,1.4338,1.4384,1.4315,1.4301,1.4308,1.4268,1.4265,1.4207,1.4189,1.4152,1.402,1.4008,0,0,0,1.4338,1.4313,1.4299,1.4278,1.4269,1.4259,1.4259,1.4254,1.4221,1.4286,1.4185,1.4175,1.4153,1.4135,1.4125,1.4106,1.4242,1.4242,1.4242,1.4213,1.4228,1.4173,1.4184,1.4163,1.4165,1.4148,1.4142,1.416,1.4137,1.4123,1.4042,1.4021,1.4013,1.3994,1.4107,1.4107,1.4107,1.4107,1.4103,1.407,1.41,1.4057,1.4072,1.4035,1.4036,1.4051,1.4017,1.4053,1.4035,1.407,1.3999,1.3982,1.4104,1.4104,1.4105,1.4105,1.4105,1.4021,1.4007,1.4006,1.3978,1.3954,1.3968,1.3935,1.395,1.3963,1.3946,1.3933,1.3933,1.3933,1.394,1.3939,1.3939,1.3939,1.3939,1.3938,1.3934,1.3934,1.3906,1.3895,1.3884,1.3872,1.3876,1.3864,1.3855,1.3869,1.3869,1.3888,1.3991,1.4015,1.3934,1.3935,1.3935,1.3936,1.3936,1.3811,1.3842,1.3799,1.3788,1.3777,1.3752,1.3774,1.3751,1.3744,1.3727,1.3753,1.3827,1.3838,1.3847,1.3866,1.3751,1.3751,1.3751,1.3751,1.3739,1.3748,1.3707,1.369,1.3674,1.3691,1.3639,1.3642,1.3649,1.3646,1.3666,1.3694,1.3703,1.3708,1.372,1.3738,1.3593,1.3593,1.3593,1.3663,1.3672,1.3625,1.3636,1.363,1.3622,1.3574,1.355,1.3566,1.3587,1.3643,1.3649,1.3696,1.3711,1.3728,1.3746,1.3779,0,0]}]]